Location: Ajisawe
(8.4333°N, 4.3833°E)
Time: 05:35:23
(UTC+00:00)

A-11 Canister half - Pass Details

Date: 26 April 2021
Orbit: 1514 x 1685 km, 47.2° (Epoch: 12 May)

Event Time Altitude Azimuth Distance (km) Brightness Sun altitude
Rises 04:42:08 0° 301° (WNW) 4,886 11.2 -11.9°
Reaches altitude 10° 04:45:39 10° 292° (WNW) 3,916 10.7 -11.1°
Maximum altitude 04:54:24 34° 232° (SW) 2,510 9.7 -9.0°
Drops below altitude 10° 05:03:15 10° 170° (S) 3,939 11.1 -6.9°
Sets 05:06:51 0° 161° (SSE) 4,919 11.7 -6.0°
